This demonstration page uses our WeatherBlox Daily Observations layout. Learn more.

Left ArrowRight Arrow

44.8408, -93.29828

Hourly Observations for September 4, 2020

Temp ( °F °C ) Dew Point ( °F °C ) Humidity (%) Winds ( mph kmh ) Pressure ( in mb ) Visibility ( mi km ) Precip ( " mm )
12:53 am 00:53 Clear 55 12.8 46 7.8 72 72 WSW 3 6 29.99 1016 10 16 0.00 0.00
1:53 am 01:53 Clear 54 12.2 46 7.8 75 75 SW 6 9 29.99 1016 10 16 0.00 0.00
2:53 am 02:53 Clear 54 12.2 46 7.8 75 75 WSW 6 9 30.00 1016 10 16 0.00 0.00
3:53 am 03:53 Clear 53 11.7 46 7.8 77 77 WSW 5 7 30.01 1016 10 16 0.00 0.00
4:53 am 04:53 Clear 53 11.7 46 7.8 77 77 SW 6 9 30.01 1016 10 16 0.00 0.00
5:53 am 05:53 Mostly Clear 53 11.7 46 7.8 77 77 SW 6 9 30.02 1017 10 16 0.00 0.00
6:53 am 06:53 Mostly Sunny 52 11.1 46 7.8 80 80 WSW 7 11 30.04 1017 10 16 0.00 0.00
7:53 am 07:53 Mostly Sunny 55 12.8 47 8.3 74 74 NNW 6 9 30.06 1018 10 16 0.00 0.00
8:53 am 08:53 Mostly Sunny 59 15 49 9.4 69 69 W 7 11 30.07 1018 10 16 0.00 0.00
9:53 am 09:53 Mostly Cloudy 64 17.8 49 9.4 58 58 NW 8 13 30.09 1019 10 16 0.00 0.00
10:53 am 10:53 Mostly Cloudy 64 17.8 49 9.4 58 58 WNW 7 11 30.11 1020 10 16 0.00 0.00
11:53 am 11:53 Mostly Cloudy 69 20.6 47 8.3 45 45 NW 12 19 30.11 1020 10 16 0.00 0.00
12:53 pm 12:53 Mostly Cloudy 72 22.2 47 8.3 41 41 NW 9 15 30.11 1020 10 16 0.00 0.00
1:53 pm 13:53 Mostly Cloudy 70 21.1 45 7.2 41 41 NW 10 17 30.10 1019 10 16 0.00 0.00
2:53 pm 14:53 Partly Cloudy 73 22.8 45 7.2 37 37 NNW 14 22 30.09 1019 10 16 0.00 0.00
3:53 pm 15:53 Partly Cloudy 74 23.3 44 6.7 34 34 NNW 12 19 30.08 1019 10 16 0.00 0.00
4:53 pm 16:53 Partly Cloudy 73 22.8 45 7.2 37 37 W 5 7 30.07 1018 10 16 0.00 0.00
5:53 pm 17:53 Partly Cloudy 74 23.3 47 8.3 38 38 SE 7 11 30.06 1018 10 16 0.00 0.00
6:53 pm 18:53 Partly Cloudy 72 22.2 46 7.8 40 40 SE 6 9 30.05 1018 10 16 0.00 0.00
7:53 pm 19:53 Partly Cloudy 68 20 49 9.4 51 51 ESE 7 11 30.04 1017 10 16 0.00 0.00
8:53 pm 20:53 Partly Cloudy 67 19.4 48 8.9 51 51 ESE 8 13 30.06 1018 10 16 0.00 0.00
9:53 pm 21:53 Partly Cloudy 65 18.3 48 8.9 54 54 E 8 13 30.07 1018 10 16 0.00 0.00
10:53 pm 22:53 Partly Cloudy 64 17.8 48 8.9 56 56 ENE 8 13 30.09 1019 10 16 0.00 0.00
11:53 pm 23:53 Partly Cloudy 64 17.8 48 8.9 56 56 E 7 11 30.09 1019 10 16 0.00 0.00

Powered by AerisWeather